Location: Newark
(52.3500°N, 175.9667°E)
Time: 08:20:00
(UTC+00:00)

X-37B - Visible Passes

Search period start: 06 March 2021 00:00
Search period end: 16 March 2021 00:00
Orbit: 383 x 391 km, 45.0° (Epoch: 27 February)

Date Brightness Start Highest point End Pass type
(mag) Time Alt. Az. Time Alt. Az. Time Alt. Az.
13 Mar 3.1 08:13:14 10° SSW 08:13:51 13° SSW 08:13:51 13° SSW visible
14 Mar 2.9 07:15:49 10° S 07:17:11 12° SSE 07:18:22 11° SE visible
14 Mar 3.6 08:50:35 10° SW 08:50:40 11° SW 08:50:40 11° SW visible
15 Mar 2.3 07:52:34 10° SW 07:54:57 19° S 07:55:07 19° SSE visible
